Вернуться в каталог

STARLINK-30361

АктивенСвязьVLEO
NORAD 57743·PAYLOAD·🇺🇸 United States

Запущен Sep 1, 2023 с Cape Canaveral Space Force Station

Loading…

Ближайшие Пролёты (ближайшие 24 часа)

TLE

СвежийSource: CelesTrak SupGP

Эпоха: Sep 14, 2026, 20:38 UTC

1 57743C 23131M   26257.86020833  .00001527  00000+0  55291-4 0  2575
2 57743  42.9997 183.9537 0001329 261.8833 311.1078 15.27583357    18

Отслеживайте STARLINK-30361 в реальном времени с AllMySat

Download on the App Store